Погода в Ялтуровске

Погода в Ялтуровске : погода сейчас, прогноз погоды и архив. Всё, что Вы хотите узнать о погоде в Ялтуровске!

Хотите узнать прогноз погоды в Ялтуровске? Тогда Вам сюда: Погода в Ялтуровске

Поиск расширенной информации на нашем сайте:

Другие новости

Новости СМИ2

Главная страница сайта

Новости сайта

02.10.2013

Напоминаем, что на нашем новом сайте вы можете получить высокодетализированные прогнозы погоды по пунктам России, СНГ и мира (включающие важные для авиации метеовеличины, такие как направление и скорость ветра, видимость, явления погоды, количество и форма облачности, нижняя и верхняя граница облачности), а также ознакомиться с разнообразными материалами по авиационной метеорологии и подборкой полезных ссылок на эту тему.

Сайт Метеоцентр.Азия посвящён разработке технологий оптимизации авиаметеорологического обслуживания, включая проектирование и перспективное создание нескольких автоматизированных авиаметеорологических систем:
- система выпуска высокодетальных прогностических карт явлений погоды для нижнего воздушного пространства по России и ближнему зарубежью;
- система верификации прогнозов TAF (выпускаемых синоптиками официальных АМСГ РФ и ближнего зарубежья) и AUTOTAF (выпускаемых сайтом Метеоцентр.Азия) - выявление ошибок, онлайн-сопоставление с фактической погодой METAR, автоматическое внесение коррективов в прогнозы при резком отклонении фактической погоды от прогноза, подсчёт оправдываемости прогнозов по элементам и в целом;
- система обработки, анализа и отображения авиаметеорологической информации для применения провайдерами метеорологической информации.

Рекомендуем: Информация полировка фар цена здесь.

Погода в Ялтуровске - сегодня

Время (UTC), дата Ветер
(°,м/с) 
Видим.   Явления Облачность Т
(°С)
Тd
(°С)
f(%) Тe
(°С)
Pmin
(гПа)
dP
(гПа)
Po
(мм)
O2
(г/м3)
Тmin Tmax R s Состояние
почвы
12 20.02.17 170 (Ю) 6{11}  20000 м  позёмок  10/0 средняя 
[As op]
-6.7 -12.8 62 -11  1004.2  -3.2  747  310           
15 20.02.17 190 (Ю) 8-12{15}  4000 м  слаб. снег  10/0 средняя 
[As op]
-7 -8.3 90 -13  1001.8  -2.3  746  309    -6.7  0.2     
18 20.02.17 200 (Ю) 20000 м  {снег}  10/0 средняя 
[Ac As]
-4.2 -6.4 85 -8  999.3  -1.8  744  305           
21 20.02.17 210 (ЮЗ) 6{10}  20000 м    10/0 средняя 
[Ac As]
-1.6 -4.7 79 -5  998.2  -1  743  302           
00 21.02.17 200 (Ю) 6-10{12}  20000 м    10/10 600 м 
[Sc]
-1.9 -2.9 93 -6  997  -1.1  742  301           
03 21.02.17 200 (Ю) 6{13}  20000 м  в посл. час снег  10/0 средняя, верхняя 
[As op|Ci]
-1.8 -3.9 86 -6  997.3  0.3  742  301  -6.7    0.3  60  равномерный
сухой снег
100% 
06 21.02.17 220 (ЮЗ) 6{10}  20000 м  {снег}  6/0 верхняя 
[Ci fib]
+1.8 -3.8 66 -1  998.2  1.1  743  298           
09 21.02.17 240 (ЮЗ) 6-12{13}  20000 м    10/0 верхняя 
[Ci sp]
+3 -3.7 61 999.3  1.2  744  297           
12 21.02.17 190 (Ю) 5{12}  20000 м    10/0 средняя 
[Ac und]
+1.2 -2.7 75 -2  1000.4  1.1  745  299           
15 21.02.17 190 (Ю) 20000 м    10/0 средняя 
[As op]
+0.2 -3.1 78 -3  1002.1  1.6  746  301    +3.1       
18 21.02.17 200 (Ю) 20000 м    10/0 средняя 
[As op]
-0.9 -4.2 78 -4  1002.8  0.7  746  302           
21 21.02.17 200 (Ю) 20000 м    10/0 средняя 
[Ac As]
-2.7 -5.3 82 -6  1003.8  0.9  747  305           
00 22.02.17 190 (Ю) 7{11}  20000 м    10/0 средняя 
[Ac As]
-3.7 -6.3 82 -8  1005.1  1.3  748  306           
03 22.02.17 200 (Ю) 6-10{11}  20000 м    10/0 средняя 
[As op]
-3.5 -6.7 78 -8  1006.3  1.2  749  306  -3.7      58  равномерный
мокрый или
старый снег
100% 
06 22.02.17 190 (Ю) 7-10{13}  н/о    н/о 
-0.4 -4.1 76 -4  1006.7  0.7  749  303           
09 22.02.17 180 (Ю) 8{14}  20000 м    4/0 верхняя 
[Ci fib]
+1.4 -2.7 74 -3  1007.2  0.6  750  301           
15 22.02.17 200 (Ю) 8-11{13}  20000 м    ясно 
-0.9 -3.9 80 -5  1010.9  2.2  752  305    +2.2       
18 22.02.17 190 (Ю) 5{12}  20000 м    3/0 верхняя 
[Ci sp]
-2 -5.4 77 -5  1012.8  1.9  754  307           
21 22.02.17 190 (Ю) 7-11{11}  20000 м    3/0 верхняя 
[Ci sp]
-3.1 -6 80 -8  1013.5  0.6  754  308           
00 23.02.17 190 (Ю) 9-12{13}  20000 м    3/0 верхняя 
[Ci sp]
-4.7 -8.7 74 -10  1013.9  0.4  755  310           
03 23.02.17 190 (Ю) 7-12{12}  20000 м    8/0 верхняя 
[Ci sp]
-5.3 -8.4 79 -10  1014.3  0.4  755  311  -6.6      56  равномерный
мокрый или
старый снег
100% 
06 23.02.17 190 (Ю) 8-12{14}  20000 м    10/0 верхняя 
[Ci sp]
-4.2 -9.2 68 -9  1014.6  0.3  755  310           
09 23.02.17 190 (Ю) 9-13{14}  20000 м    10/0 верхняя 
[Ci sp]
-2 -10.8 51 -7  1014.6  755  308           
12 23.02.17 190 (Ю) 8-12{16}  20000 м    10/0 верхняя 
[Ci sp]
-0.6 -12.4 40 -5  1014.5  755  306           
15 23.02.17 180 (Ю) 6{12}  20000 м    ясно 
-4.1 -11.4 57 -8  1014.3  -0.3  755  310    -0.4       
Время (UTC), дата Ветер
(°,м/с) 
Видим.   Явления Облачность Т
(°С)
Тd
(°С)
f(%) Тe
(°С)
Pmin
(гПа)
dP
(гПа)
Po
(мм)
O2
(г/м3)
Тmin Tmax R s Состояние
почвы

Для получения пояснительной информации подведите курсор к названию столбца.

ПОГОДА в Ялтуровске - архив

Всё, что Вы хотите узнать о погоде в Ялтуровске - удобно и подробно!

Выберите нужную дату (начиная с 1 января 2015* года) и нажмите кнопку "Найти".
Будут отображены архивные сводки погоды по пункту Ялтуровск, начиная с указанной даты.


Отображать данные в формате CSV (для использования в таблицах Excel)


Внимание! Наш архив погоды предназначен исключительно для личного некоммерческого использования в познавательных целях. Если Вам необходимы официальные справки о состоянии погоды (для производственных, юридических, коммерческих и т.п. целей), обращайтесь в органы Росгидромета.

*Примечание: данная дата относится к архиву по метеостанциям СССР (Россия, СНГ, Балтия).
Архив по метеостанциям Зарубежной Европы и Азии (кроме Китая) хранится 10 дней, по другим регионам земного шара (Китай, Африка, Америка, Австралия, Океания) - 1 день.

Ялтуровск - район местоположения метеостанции


Название, широта, долгота, высота метеостанции:
Ялтуровск 56.7°ш. 66.3°д. 61 м над ур. моря [Российская Федерация]

Дополнительная информация

В oтличие oт бoльшинства пoгoдных сайтoв мы публикуем пoдрoбную метеoинфoрмацию в детальнoм прoфессиoнальнoм фoрмате.

Характеристики температуры и влажнoсти вoздуха измеряются на высoте 2 м в тени вдали oт зданий и деревьев.
Скoрoсть ветра измеряется на высoте 10 м (на урoвне рoста челoвека скoрoсть ветра ниже в 1.5-2 раза). Если метеoстанция нахoдится в гoрoде или в лесу, тo скoрoсть ветра занижена на 2-4 м/с пo сравнению с oткрытым местoм. Скoрoсть ветра над акватoриями крупных рек и oзёр, а также на вершинах хoлмoв на 2-5 м/с выше, чем в oбычных услoвиях.
Атмoсфернoе давление в разных тoчках местнoсти мoжет значительнo oтличаться oт давления на метеoстанции, в зависимoсти oт услoвий рельефа (при пoдъёме на 10 м давление пoнижается примернo на 1 мм рт.ст.).